{"data":{"norad_id":62843,"epoch":"2026-09-21T17:32:30.675840Z","epoch_age_seconds":61834,"freshness":"FRESH","line1":"1 62843U 25019Q   26264.73091060  .00009917  00000+0  36913-3 0  9996","line2":"2 62843  42.9957  61.7773 0001024 126.1235 233.9712 15.27603568 92235","mean_motion":15.27603568,"eccentricity":0.0001024,"inclination_deg":42.9957,"raan_deg":61.7773,"arg_perigee_deg":126.1235,"mean_anomaly_deg":233.9712,"bstar":0.00036913,"rev_number":9223,"period_min":94.265294358097,"perigee_km":482.27594764658,"apogee_km":483.68110410628,"semimajor_km":6861.1155258764,"source":"CELESTRAK","updated_at":"2026-09-22T09:00:49.673879Z"}}